| time (UTC) | temp F | wind direction | speed MPH | gust MPH | rain 1hr in | rain 24hr in | rain mn in | humidity % | barometer mb |
| 20260901191823 | 98 | 282 | 0.0 | 2.0 | 0.00 | 0.00 | 0.00 | 33 | 1009.0 |
| 20260901190822 | 99 | 282 | 2.0 | 7.0 | 0.00 | 0.00 | 0.00 | 32 | 1009.3 |
| 20260901185822 | 99 | 263 | 2.0 | 3.0 | 0.00 | 0.00 | 0.00 | 32 | 1009.2 |
| 20260901184822 | 99 | 192 | 5.0 | 12.0 | 0.00 | 0.00 | 0.00 | 32 | 1009.2 |
| 20260901183823 | 99 | 200 | 6.0 | 12.0 | 0.00 | 0.00 | 0.00 | 33 | 1009.3 |
| 20260901182823 | 98 | 248 | 2.0 | 6.0 | 0.00 | 0.00 | 0.00 | 33 | 1009.4 |
| 20260901181822 | 97 | 205 | 2.0 | 7.0 | 0.00 | 0.00 | 0.00 | 35 | 1009.7 |
| 20260901180823 | 96 | 263 | 1.0 | 3.0 | 0.00 | 0.00 | 0.00 | 37 | 1009.9 |
| 20260901175823 | 98 | 199 | 6.0 | 10.0 | 0.00 | 0.00 | 0.00 | 33 | 1009.8 |
| 20260901174822 | 98 | 190 | 7.0 | 10.0 | 0.00 | 0.00 | 0.00 | 34 | 1009.8 |
| 20260901173823 | 97 | 262 | 2.0 | 6.0 | 0.00 | 0.00 | 0.00 | 37 | 1009.9 |
| 20260901172822 | 97 | 276 | 2.0 | 5.0 | 0.00 | 0.00 | 0.00 | 38 | 1010.1 |
| 20260901171822 | 97 | 229 | 3.0 | 6.0 | 0.00 | 0.00 | 0.00 | 37 | 1010.2 |
| 20260901170823 | 96 | 276 | 2.0 | 2.0 | 0.00 | 0.00 | 0.00 | 38 | 1010.3 |
| 20260901165822 | 96 | 283 | 1.0 | 2.0 | 0.00 | 0.00 | 0.00 | 39 | 1010.4 |
| 20260901164822 | 96 | 240 | 1.0 | 3.0 | 0.00 | 0.00 | 0.00 | 40 | 1010.4 |
| 20260901163823 | 96 | 288 | 2.0 | 2.0 | 0.00 | 0.00 | 0.00 | 39 | 1010.4 |
| 20260901162822 | 95 | 277 | 1.0 | 2.0 | 0.00 | 0.00 | 0.00 | 39 | 1010.5 |
| 20260901161822 | 94 | 215 | 1.0 | 3.0 | 0.00 | 0.00 | 0.00 | 41 | 1010.6 |
| 20260901160823 | 93 | 286 | 1.0 | 2.0 | 0.00 | 0.00 | 0.00 | 42 | 1010.6 |
| 20260901155822 | 92 | 289 | 1.0 | 2.0 | 0.00 | 0.00 | 0.00 | 43 | 1010.6 |
| 20260901154822 | 92 | 282 | 1.0 | 2.0 | 0.00 | 0.00 | 0.00 | 43 | 1010.5 |
| 20260901153823 | 91 | 280 | 1.0 | 3.0 | 0.00 | 0.00 | 0.00 | 45 | 1010.7 |
| 20260901152822 | 90 | 260 | 1.0 | 7.0 | 0.00 | 0.00 | 0.00 | 45 | 1010.8 |
| 20260901151823 | 89 | 255 | 5.0 | 3.0 | 0.00 | 0.00 | 0.00 | 46 | 1010.8 |
| 20260901150822 | 88 | 221 | 2.0 | 5.0 | 0.00 | 0.00 | 0.00 | 48 | 1010.9 |
| 20260901145823 | 87 | 304 | 1.0 | 2.0 | 0.00 | 0.00 | 0.00 | 49 | 1011.0 |
| 20260901144822 | 86 | 260 | 1.0 | 2.0 | 0.00 | 0.00 | 0.00 | 51 | 1011.0 |
| 20260901143823 | 85 | 266 | 1.0 | 2.0 | 0.00 | 0.00 | 0.00 | 53 | 1011.1 |
| 20260901142822 | 83 | 258 | 1.0 | 3.0 | 0.00 | 0.00 | 0.00 | 55 | 1011.2 |
| 20260901141822 | 82 | 276 | 1.0 | 3.0 | 0.00 | 0.00 | 0.00 | 56 | 1011.2 |
| 20260901140822 | 82 | 194 | 0.0 | 0.0 | 0.00 | 0.00 | 0.00 | 58 | 1011.2 |
| 20260901135823 | 81 | 181 | 1.0 | 6.0 | 0.00 | 0.00 | 0.00 | 58 | 1011.2 |
| 20260901134822 | 80 | 184 | 2.0 | 3.0 | 0.00 | 0.00 | 0.00 | 58 | 1011.3 |
| 20260901133823 | 79 | 190 | 2.0 | 3.0 | 0.00 | 0.00 | 0.00 | 59 | 1011.3 |
| 20260901132823 | 78 | 191 | 3.0 | 3.0 | 0.00 | 0.00 | 0.00 | 60 | 1011.4 |
| 20260901131822 | 77 | 190 | 3.0 | 3.0 | 0.00 | 0.00 | 0.00 | 62 | 1011.4 |
| 20260901130823 | 76 | 183 | 1.0 | 3.0 | 0.00 | 0.00 | 0.00 | 63 | 1011.4 |
| 20260901125822 | 75 | 187 | 2.0 | 3.0 | 0.00 | 0.00 | 0.00 | 64 | 1011.3 |
| 20260901124823 | 74 | 194 | 2.0 | 3.0 | 0.00 | 0.00 | 0.00 | 64 | 1011.3 |
| 20260901123822 | 74 | 178 | 1.0 | 3.0 | 0.00 | 0.00 | 0.00 | 67 | 1011.2 |
| 20260901122823 | 73 | 190 | 0.0 | 2.0 | 0.00 | 0.00 | 0.00 | 67 | 1010.9 |
| 20260901121822 | 73 | 167 | 0.0 | 1.0 | 0.00 | 0.00 | 0.00 | 66 | 1010.8 |
| 20260901120822 | 73 | 175 | 0.0 | 1.0 | 0.00 | 0.00 | 0.00 | 66 | 1010.8 |
| 20260901115822 | 73 | 188 | 0.0 | 2.0 | 0.00 | 0.00 | 0.00 | 66 | 1010.5 |
| 20260901114823 | 73 | 175 | 0.0 | 1.0 | 0.00 | 0.00 | 0.00 | 67 | 1010.4 |
| 20260901113823 | 73 | 202 | 0.0 | 2.0 | 0.00 | 0.00 | 0.00 | 67 | 1010.5 |
| 20260901112823 | 73 | 217 | 0.0 | 0.0 | 0.00 | 0.00 | 0.00 | 67 | 1010.5 |
| 20260901111823 | 73 | 227 | 0.0 | 0.0 | 0.00 | 0.00 | 0.00 | 66 | 1010.5 |
| 20260901110822 | 74 | 227 | 0.0 | 0.0 | 0.00 | 0.00 | 0.00 | 65 | 1010.3 |
| 20260901105823 | 74 | 228 | 0.0 | 0.0 | 0.00 | 0.00 | 0.00 | 65 | 1010.1 |
| 20260901104822 | 74 | 225 | 0.0 | 1.0 | 0.00 | 0.00 | 0.00 | 64 | 1010.1 |
| 20260901103822 | 75 | 233 | 0.0 | 0.0 | 0.00 | 0.00 | 0.00 | 63 | 1010.1 |
| 20260901102823 | 75 | 233 | 0.0 | 0.0 | 0.00 | 0.00 | 0.00 | 61 | 1010.0 |
| 20260901101822 | 76 | 233 | 0.0 | 0.0 | 0.00 | 0.00 | 0.00 | 61 | 1010.0 |
| 20260901100822 | 76 | 237 | 0.0 | 1.0 | 0.00 | 0.00 | 0.00 | 60 | 1009.7 |
| 20260901095823 | 76 | 199 | 1.0 | 1.0 | 0.00 | 0.00 | 0.00 | 61 | 1009.6 |
| 20260901094822 | 76 | 206 | 1.0 | 2.0 | 0.00 | 0.00 | 0.00 | 60 | 1009.5 |
| 20260901093823 | 77 | 182 | 0.0 | 2.0 | 0.00 | 0.00 | 0.00 | 59 | 1009.4 |
| 20260901092822 | 77 | 208 | 0.0 | 1.0 | 0.00 | 0.00 | 0.00 | 58 | 1009.4 |
| 20260901091823 | 77 | 213 | 0.0 | 1.0 | 0.00 | 0.00 | 0.00 | 58 | 1009.4 |
| 20260901090823 | 77 | 183 | 0.0 | 2.0 | 0.00 | 0.00 | 0.00 | 58 | 1009.3 |
| 20260901085822 | 77 | 193 | 1.0 | 1.0 | 0.00 | 0.00 | 0.00 | 58 | 1009.2 |
| 20260901084823 | 78 | 213 | 0.0 | 1.0 | 0.00 | 0.00 | 0.00 | 58 | 1009.1 |
| 20260901083822 | 78 | 194 | 0.0 | 1.0 | 0.00 | 0.00 | 0.00 | 57 | 1009.0 |
| 20260901082821 | 78 | 219 | 0.0 | 0.0 | 0.00 | 0.00 | 0.00 | 58 | 1008.9 |
| 20260901081822 | 78 | 225 | 0.0 | 2.0 | 0.00 | 0.00 | 0.00 | 57 | 1008.8 |
| 20260901080823 | 78 | 184 | 0.0 | 1.0 | 0.00 | 0.00 | 0.00 | 57 | 1008.8 |
| 20260901075822 | 79 | 213 | 0.0 | 1.0 | 0.00 | 0.00 | 0.00 | 56 | 1008.8 |
| 20260901074823 | 79 | 209 | 1.0 | 1.0 | 0.00 | 0.00 | 0.00 | 56 | 1008.8 |
| 20260901073822 | 79 | 193 | 1.0 | 2.0 | 0.00 | 0.00 | 0.00 | 56 | 1008.9 |
| 20260901072821 | 80 | 210 | 1.0 | 1.0 | 0.00 | 0.00 | 0.00 | 55 | 1008.9 |
| 20260901071822 | 80 | 190 | 1.0 | 2.0 | 0.00 | 0.00 | 0.00 | 55 | 1009.0 |
| 20260901070823 | 80 | 183 | 1.0 | 2.0 | 0.00 | 0.00 | 0.00 | 54 | 1008.8 |
| 20260901065822 | 80 | 185 | 1.0 | 2.0 | 0.00 | 0.00 | 0.00 | 54 | 1008.9 |
| 20260901064823 | 81 | 192 | 1.0 | 3.0 | 0.00 | 0.00 | 0.00 | 54 | 1008.9 |
| 20260901063823 | 81 | 181 | 2.0 | 3.0 | 0.00 | 0.00 | 0.00 | 54 | 1009.1 |
| 20260901062822 | 81 | 191 | 1.0 | 2.0 | 0.00 | 0.00 | 0.00 | 54 | 1009.2 |
| 20260901061823 | 81 | 194 | 1.0 | 2.0 | 0.00 | 0.00 | 0.00 | 55 | 1009.2 |
| 20260901060822 | 81 | 190 | 1.0 | 2.0 | 0.00 | 0.00 | 0.00 | 54 | 1009.2 |
| 20260901055823 | 82 | 197 | 1.0 | 2.0 | 0.00 | 0.00 | 0.00 | 54 | 1009.1 |
| 20260901054822 | 82 | 193 | 1.0 | 2.0 | 0.00 | 0.00 | 0.00 | 53 | 1009.1 |
| 20260901053823 | 82 | 186 | 1.0 | 3.0 | 0.00 | 0.00 | 0.00 | 53 | 1009.0 |
| 20260901052823 | 83 | 192 | 2.0 | 3.0 | 0.00 | 0.00 | 0.00 | 52 | 1008.9 |
| 20260901051822 | 83 | 184 | 2.0 | 3.0 | 0.00 | 0.00 | 0.00 | 52 | 1008.9 |
| 20260901050822 | 83 | 207 | 1.0 | 2.0 | 0.00 | 0.00 | 0.00 | 53 | 1008.8 |
| 20260901045823 | 83 | 205 | 1.0 | 2.0 | 0.00 | 0.00 | 0.00 | 52 | 1008.9 |
| 20260901044822 | 84 | 194 | 2.0 | 3.0 | 0.00 | 0.00 | 0.00 | 51 | 1008.9 |
| 20260901043822 | 84 | 198 | 2.0 | 3.0 | 0.00 | 0.00 | 0.00 | 51 | 1008.9 |
| 20260901042822 | 84 | 190 | 2.0 | 3.0 | 0.00 | 0.00 | 0.00 | 50 | 1008.8 |
| 20260901041822 | 85 | 204 | 1.0 | 3.0 | 0.00 | 0.00 | 0.00 | 50 | 1008.7 |
| 20260901040821 | 85 | 208 | 1.0 | 2.0 | 0.00 | 0.00 | 0.00 | 49 | 1008.7 |
| 20260901035822 | 86 | 212 | 1.0 | 3.0 | 0.00 | 0.00 | 0.00 | 48 | 1008.8 |
| 20260901034823 | 86 | 194 | 2.0 | 2.0 | 0.00 | 0.00 | 0.00 | 48 | 1008.6 |
| 20260901033822 | 87 | 188 | 1.0 | 3.0 | 0.00 | 0.00 | 0.00 | 47 | 1008.4 |
| 20260901032823 | 87 | 190 | 2.0 | 2.0 | 0.00 | 0.00 | 0.00 | 47 | 1008.3 |
| 20260901031822 | 87 | 189 | 2.0 | 5.0 | 0.00 | 0.00 | 0.00 | 46 | 1008.2 |
| 20260901030823 | 88 | 194 | 3.0 | 3.0 | 0.00 | 0.00 | 0.00 | 46 | 1008.1 |
| 20260901025821 | 88 | 185 | 2.0 | 5.0 | 0.00 | 0.00 | 0.00 | 45 | 1008.2 |
| 20260901024823 | 89 | 204 | 2.0 | 3.0 | 0.00 | 0.00 | 0.00 | 45 | 1008.0 |
| 20260901023821 | 89 | 189 | 2.0 | 3.0 | 0.00 | 0.00 | 0.00 | 44 | 1007.8 |
| 20260901022822 | 90 | 187 | 3.0 | 6.0 | 0.00 | 0.00 | 0.00 | 43 | 1007.7 |
| 20260901021823 | 90 | 183 | 2.0 | 5.0 | 0.00 | 0.00 | 0.00 | 43 | 1007.4 |
| 20260901020822 | 90 | 202 | 3.0 | 3.0 | 0.00 | 0.00 | 0.00 | 42 | 1007.2 |
| 20260901015823 | 91 | 193 | 2.0 | 5.0 | 0.00 | 0.00 | 0.00 | 42 | 1007.4 |
| 20260901014822 | 91 | 188 | 2.0 | 6.0 | 0.00 | 0.00 | 0.00 | 41 | 1007.3 |
| 20260901013822 | 92 | 210 | 1.0 | 2.0 | 0.00 | 0.00 | 0.00 | 41 | 1007.1 |
| 20260901012823 | 93 | 197 | 2.0 | 3.0 | 0.00 | 0.00 | 0.00 | 40 | 1007.0 |
| 20260901011821 | 93 | 171 | 2.0 | 3.0 | 0.00 | 0.00 | 0.00 | 39 | 1006.9 |
| 20260901010822 | 94 | 196 | 1.0 | 3.0 | 0.00 | 0.00 | 0.00 | 39 | 1006.7 |
| 20260901005822 | 95 | 191 | 2.0 | 3.0 | 0.00 | 0.00 | 0.00 | 38 | 1006.8 |
| 20260901004822 | 96 | 176 | 2.0 | 3.0 | 0.00 | 0.00 | 0.00 | 37 | 1006.8 |
| 20260901003823 | 97 | 199 | 2.0 | 6.0 | 0.00 | 0.00 | 0.00 | 36 | 1006.8 |
| 20260901002821 | 97 | 188 | 1.0 | 3.0 | 0.00 | 0.00 | 0.00 | 35 | 1006.7 |
| 20260901001822 | 98 | 191 | 3.0 | 5.0 | 0.00 | 0.00 | 0.00 | 34 | 1006.7 |
| 20260901000821 | 99 | 183 | 3.0 | 6.0 | 0.00 | 0.00 | 0.00 | 33 | 1006.7 |
| 20260831235823 | 99 | 192 | 3.0 | 7.0 | 0.00 | 0.00 | 0.00 | 33 | 1006.7 |
| 20260831234822 | 100 | 192 | 5.0 | 9.0 | 0.00 | 0.00 | 0.00 | 32 | 1006.6 |
| 20260831233823 | 100 | 195 | 6.0 | 7.0 | 0.00 | 0.00 | 0.00 | 31 | 1006.6 |
| 20260831232822 | 100 | 185 | 6.0 | 9.0 | 0.00 | 0.00 | 0.00 | 31 | 1006.6 |
| 20260831231823 | 100 | 185 | 7.0 | 6.0 | 0.00 | 0.00 | 0.00 | 31 | 1006.6 |
| 20260831230822 | 100 | 193 | 6.0 | 9.0 | 0.00 | 0.00 | 0.00 | 30 | 1006.6 |
| 20260831225821 | 100 | 213 | 7.0 | 10.0 | 0.00 | 0.00 | 0.00 | 31 | 1006.5 |
| 20260831224822 | 101 | 190 | 7.0 | 13.0 | 0.00 | 0.00 | 0.00 | 30 | 1006.6 |
| 20260831223823 | 101 | 187 | 5.0 | 10.0 | 0.00 | 0.00 | 0.00 | 29 | 1006.6 |
| 20260831222822 | 101 | 199 | 6.0 | 10.0 | 0.00 | 0.00 | 0.00 | 29 | 1006.6 |
| 20260831221822 | 101 | 182 | 9.0 | 10.0 | 0.00 | 0.00 | 0.00 | 29 | 1006.7 |
| 20260831220821 | 101 | 186 | 7.0 | 12.0 | 0.00 | 0.00 | 0.00 | 30 | 1006.8 |
| 20260831215822 | 102 | 179 | 7.0 | 12.0 | 0.00 | 0.00 | 0.00 | 29 | 1006.7 |
| 20260831214822 | 102 | 188 | 6.0 | 9.0 | 0.00 | 0.00 | 0.00 | 29 | 1006.9 |
| 20260831213822 | 102 | 292 | 1.0 | 2.0 | 0.00 | 0.00 | 0.00 | 30 | 1006.8 |
| 20260831212823 | 102 | 259 | 5.0 | 7.0 | 0.00 | 0.00 | 0.00 | 28 | 1007.0 |
| 20260831211822 | 102 | 226 | 1.0 | 3.0 | 0.00 | 0.00 | 0.00 | 28 | 1007.0 |
| 20260831210823 | 102 | 215 | 2.0 | 5.0 | 0.00 | 0.00 | 0.00 | 29 | 1007.0 |
| 20260831205822 | 102 | 234 | 1.0 | 5.0 | 0.00 | 0.00 | 0.00 | 29 | 1006.9 |
| 20260831204821 | 102 | 280 | 5.0 | 7.0 | 0.00 | 0.00 | 0.00 | 29 | 1006.9 |
| 20260831203822 | 102 | 199 | 6.0 | 12.0 | 0.00 | 0.00 | 0.00 | 29 | 1007.0 |
| 20260831202822 | 102 | 183 | 10.0 | 15.0 | 0.00 | 0.00 | 0.00 | 28 | 1007.2 |
| 20260831201821 | 102 | 187 | 6.0 | 12.0 | 0.00 | 0.00 | 0.00 | 29 | 1007.4 |
| 20260831200822 | 102 | 186 | 9.0 | 14.0 | 0.00 | 0.00 | 0.00 | 29 | 1007.4 |
| 20260831195822 | 102 | 186 | 7.0 | 12.0 | 0.00 | 0.00 | 0.00 | 29 | 1007.4 |
| 20260831194821 | 102 | 255 | 1.0 | 6.0 | 0.00 | 0.00 | 0.00 | 32 | 1007.4 |
| 20260831193822 | 101 | 274 | 2.0 | 2.0 | 0.00 | 0.00 | 0.00 | 31 | 1007.5 |
| 20260831192821 | 102 | 175 | 8.0 | 12.0 | 0.00 | 0.00 | 0.00 | 31 | 1007.7 |